Association Sportive et Culturelle de l' Aéroport de Blagnac

Section Vol Moteur

Bienvenue sur le site ASCAB Vol Moteur

LFBO TOULOUSE-BLAGNAC

METAR :
2024/03/05 02:30 LFBO 050230Z AUTO 23008KT 9999 FEW042/// BKN056/// OVC072/// ///TCU 07/06 Q1019 TEMPO 4000 SHRA

TAF :
2024/03/04 18:21 TAF TAF LFBO 041700Z 0418/0524 VRB03KT CAVOK TEMPO 0418/0421 4000 -RA OVC020 BECMG 0423/0501 26012KT BKN020 PROB30 TEMPO 0500/0513 4000 SHRA SCT020TCU PROB30 TEMPO 0508/0518 27017G27KT